Regional Weather Roundup
Issued by NWS

Home | Current Version | Previous Version | Graphics & Text | Print | Product List | Glossary Off
Versions: 1 2 3 4 5 6 7 8 9 10 11 12 13 14 15 16 17 18 19 20 21 22 23 24 25 26 27 28 29 30 31 32 33 34 35 36 37 38 39 40 41 42 43 44 45 46 47 48 49 50

000
ASUS43 KDTX 040001
RWRMI
MICHIGAN HOURLY REGIONAL WEATHER ROUNDUP
NATIONAL WEATHER SERVICE DETROIT/PONTIAC MI
800 PM EDT MON AUG 03 2015

NOTE: "FAIR" INDICATES FEW OR NO CLOUDS BELOW 12,000 FEET WITH NO
SIGNIFICANT WEATHER AND/OR OBSTRUCTION TO VISIBILITY.

MIZ047>049-052>055-059>063-066>070-074>076-081>083-040100-
SOUTHEAST LOWER MICHIGAN

CITY           SKY/WX    TMP DP  RH WIND       PRES   REMARKS
ADRIAN         CLEAR     73  52  47 NW9       29.85R
6HR MIN TEMP:  73; 6HR MAX TEMP:  81;

ALMA           CLOUDY    73  52  48 W12G17    29.82R
ANN ARBOR      PTCLDY    74  51  44 NW12G18   29.82R
BAD AXE        CLOUDY    69  54  57 NW3       29.79S
CARO           CLOUDY    71  60  68 NW3       29.79S
DETROIT CITY   PTCLDY    77  54  44 NW9       29.80R
6HR MIN TEMP:  76; 6HR MAX TEMP:  81;

DETROIT        MOCLDY    78  52  40 W16       29.81R
6HR MIN TEMP:  77; 6HR MAX TEMP:  84;

FLINT          PTCLDY    75  52  44 W10       29.81R
6HR MIN TEMP:  71; 6HR MAX TEMP:  80; 6HR PCP:  0.04;

GROSSE ILE     PTCLDY    75  59  57 W9        29.79R
HILLSDALE      CLEAR     73  49  43 NW10      29.87R
6HR MIN TEMP:  73; 6HR MAX TEMP:  80;

HOWELL         CLEAR     73  48  41 W9G17     29.83R
6HR MIN TEMP:  68; 6HR MAX TEMP:  79;


CITY           SKY/WX    TMP DP  RH WIND       PRES   REMARKS
JACKSON        CLEAR     71  50  47 W12       29.85R
6HR MIN TEMP:  71; 6HR MAX TEMP:  78;

LAMBERTVILLE   CLEAR     77  52  41 NW8       29.83R
6HR MIN TEMP:  77; 6HR MAX TEMP:  83;

LANSING        CLEAR     73  49  42 W12       29.84R
6HR MIN TEMP:  73; 6HR MAX TEMP:  79;

LAPEER         CLOUDY    73  55  52 CALM      29.80S
MASON          CLEAR     71  49  45 W9G16     29.84R
MONROE         CLEAR     75  56  51 W9        29.81R
6HR MIN TEMP:  75; 6HR MAX TEMP:  82;

MT. CLEMENS    PTCLDY    73  61  65 N5        29.78R
6HR MIN TEMP:  67; 6HR MAX TEMP:  80; 6HR PCP:  0.16;

PONTIAC        PTCLDY    74  53  48 W10       29.80R
6HR MIN TEMP:  65; 6HR MAX TEMP:  79; 6HR PCP:  0.17;

PORT HURON     CLOUDY    66  63  88 CALM      29.79S
TRI CITIES     CLOUDY    74  54  49 W7        29.80R
6HR MIN TEMP:  73; 6HR MAX TEMP:  80;

MIDLAND        CLOUDY    74  55  51 W5        29.79S
6HR MIN TEMP:  74; 6HR MAX TEMP:  80;

TROY           PTCLDY    77  54  44 W9        29.82R
SAGINAW HB     CLOUDY    73  54  49 W7        29.79S
$$
MIZ043>046-050>051-056>058-064>065-071>073-077>080-040100-
SOUTHWEST LOWER MICHIGAN

CITY           SKY/WX    TMP DP  RH WIND       PRES   REMARKS
BATTLE CREEK     N/A    N/A N/A N/A MISG      29.86S
BENTON HARBOR  SUNNY     74  54  49 CALM      29.86S
6HR MIN TEMP:  73; 6HR MAX TEMP:  77;

BIG RAPIDS     CLEAR     70  48  44 W6        29.82S
6HR MIN TEMP:  70; 6HR MAX TEMP:  77;

COLDWATER      CLEAR     72  48  43 NW7       29.86S
6HR MIN TEMP:  72; 6HR MAX TEMP:  79;

FREMONT        FAIR      73  48  42 W5        29.83S
HOLLAND        SUNNY     73  53  49 W7        29.85F
6HR MIN TEMP:  73; 6HR MAX TEMP:  77;

GRAND RAPIDS   PTCLDY    74  49  41 NW12      29.84R
6HR MIN TEMP:  74; 6HR MAX TEMP:  79;

IONIA          FAIR      73  50  43 NW8       29.83R
6HR MIN TEMP:  73; 6HR MAX TEMP:  80;

KALAMAZOO      CLEAR     74  50  42 W9        29.86S
6HR MIN TEMP:  74; 6HR MAX TEMP:  80;

LUDINGTON      PTSUNNY   72  58  61 SW3       29.82S
6HR MIN TEMP:  71; 6HR MAX TEMP:  76;

MARSHALL       CLEAR     72  51  46 W9        29.85S
MOUNT PLEASANT MOCLDY    74  51  44 W9        29.81R
6HR MIN TEMP:  74; 6HR MAX TEMP:  81;

MUSKEGON       MOSUNNY   74  53  48 W6        29.83F
6HR MIN TEMP:  74; 6HR MAX TEMP:  77;

SOUTH HAVEN    SUNNY     73  51  44 W3        29.85S
$$
MIZ016>042-040100-
NORTHERN LOWER MICHIGAN

CITY           SKY/WX    TMP DP  RH WIND       PRES   REMARKS
ALPENA         CLOUDY    68  53  58 NW6       29.78R
6HR MIN TEMP:  68; 6HR MAX TEMP:  75;

BEAVER ISLAND  PTSUNNY   63  58  81 CALM      29.79S HAZE
6HR MIN TEMP:  61; 6HR MAX TEMP:  70;

BELLAIRE       LGT RAIN  65  56  72 CALM      29.80R
6HR MIN TEMP:  65; 6HR MAX TEMP:  73;

CADILLAC       CLOUDY    67  52  57 W6        29.82S
CHARLEVOIX     CLOUDY    65  61  86 NW6       29.82S
6HR MIN TEMP:  62; 6HR MAX TEMP:  71;

FRANKFORT      MOSUNNY   70  58  64 W3        29.80S
GAYLORD        LGT RAIN  61  59  93 VRB3      29.82R
6HR MIN TEMP:  60; 6HR MAX TEMP:  73; 6HR PCP:  0.01;

GRAYLING       CLOUDY    68  51  53 CALM      29.81S
HARBOR SPRINGS CLOUDY    63  58  86 NW3       29.79S
HOUGHTON LAKE  PTCLDY    69  49  48 W12       29.82R
6HR MIN TEMP:  69; 6HR MAX TEMP:  74;

MANISTEE       PTSUNNY   70  54  56 SW5       29.81F
OSCODA         CLOUDY    68  59  73 NE7       29.77R
PELLSTON       CLOUDY    64  58  80 W5        29.79R
6HR MIN TEMP:  64; 6HR MAX TEMP:  73; 6HR PCP: TRACE;

ROGERS CITY    CLOUDY    64  58  78 CALM      29.78S
TRAVERSE CITY  PTSUNNY   69  53  56 W9        29.78R
6HR MIN TEMP:  69; 6HR MAX TEMP:  77;

$$
MIZ007>008-015-040100-
EASTERN UPPER MICHIGAN

CITY           SKY/WX    TMP DP  RH WIND       PRES   REMARKS
KINROSS        CLOUDY    61  57  88 NW6       29.77S
6HR MIN TEMP:  59; 6HR MAX TEMP:  66;

MACKINAC ISLAN PTCLDY    64  56  76 W12       29.77S
NEWBERRY       CLOUDY    62  51  66 NW6       29.78S
6HR MIN TEMP:  62; 6HR MAX TEMP:  69;

S. S. MARIE    CLOUDY    61  53  75 NW10      29.77R
6HR MIN TEMP:  61; 6HR MAX TEMP:  68; 6HR PCP: TRACE;

MUNISING         N/A     66  56  70 NW6       29.78S
6HR MIN TEMP:  64; 6HR MAX TEMP:  70;

$$
MIZ004>006-011>014-085-040100-
CENTRAL UPPER MICHIGAN

CITY           SKY/WX    TMP DP  RH WIND       PRES   REMARKS
ESCANABA       SUNNY     72  48  43 NW13      29.77S
6HR MIN TEMP:  63; 6HR MAX TEMP:  73;

MENOMINEE      MOSUNNY   72  50  46 NW6       29.80R
6HR MIN TEMP:  72; 6HR MAX TEMP:  75;

SAWYER-GWINN   CLOUDY    66  50  55 W12       29.80R
$$
MIZ001>003-009>011-084-040100-
WESTERN UPPER MICHIGAN

CITY           SKY/WX    TMP DP  RH WIND       PRES   REMARKS
IRON MOUNTAIN  SUNNY     69  50  50 NW9       29.81R
6HR MIN TEMP:  64; 6HR MAX TEMP:  72; 6HR PCP: TRACE;

HOUGHTON       CLOUDY    64  53  67 W10       29.78S
6HR MIN TEMP:  63; 6HR MAX TEMP:  66; 6HR PCP: TRACE;

COPPER HARBOR    N/A     65  52  62 VRB6      29.76S
6HR MIN TEMP:  64; 6HR MAX TEMP:  69;

IRONWOOD       CLOUDY    63  55  77 NW8       29.82S
6HR MIN TEMP:  63; 6HR MAX TEMP:  68;

$$

ABBREVIATIONS USED IN REMARKS
   TC - TEMPERATURE IN CELSIUS
  WCI - WIND CHILL INDEX
   HX - HEAT INDEX
  VSB - VISIBILITY




USA.gov is the U.S. government's official web portal to all federal, state and local government web resources and services.